Total_Precipitation_Accumulation
2.21 2.35 2.52 2.66 2.60 2.41 2.39 2.38 2.36 2.16 1.94 1.78 1.59 1.39 1.46 1.56 1.79 1.58 1.49 1.45 1.20 1.05 1.00 1.12 1.32 1.43 1.59 1.79 2.10 2.47 2.77 2.94 3.02 2.76 2.45 2.32 2.30 2.27
2.01 2.15 2.20 2.27 2.47 2.47 2.34 2.34 2.28 2.15 1.99 1.76 1.64 1.47 1.59 1.52 1.70 1.52 1.54 1.61 1.30 1.15 1.03 1.02 1.12 1.10 1.07 1.17 1.28 1.47 1.87 1.99 2.14 2.20 2.14 1.97 1.94 1.97
1.61 1.74 1.91 2.16 2.46 2.51 2.48 2.38 2.32 2.20 1.96 1.75 1.55 1.43 1.70 1.79 1.72 1.61 1.58 1.54 1.31 1.22 1.08 0.98 1.03 1.02 0.94 0.91 0.95 1.08 1.30 1.42 1.44 1.48 1.61 1.69 1.80 1.90
1.40 1.53 1.72 2.00 2.34 2.55 2.65 2.54 2.41 2.30 2.16 2.00 1.68 1.41 1.50 1.81 1.93 1.87 1.68 1.53 1.38 1.31 1.14 1.02 0.99 0.99 0.91 0.88 0.86 0.89 0.95 1.05 1.15 1.13 1.15 1.32 1.60 1.82
1.36 1.43 1.48 1.68 1.88 2.08 2.27 2.41 2.38 2.36 2.34 2.11 1.82 1.55 1.47 1.61 1.84 1.84 1.77 1.77 1.53 1.46 1.43 1.28 1.13 1.07 1.01 0.89 0.86 0.85 0.86 0.89 0.90 0.94 0.98 1.05 1.22 1.46
1.12 1.22 1.32 1.38 1.55 1.68 1.79 2.01 2.22 2.46 2.52 2.37 2.10 1.78 1.66 1.54 1.62 1.80 1.87 1.82 1.73 1.55 1.51 1.38 1.35 1.29 1.23 1.07 0.92 0.84 0.87 0.93 0.91 0.87 0.90 0.96 1.00 1.10
1.04 1.03 1.11 1.16 1.24 1.41 1.44 1.67 1.99 2.27 2.37 2.45 2.31 2.00 1.74 1.58 1.36 1.47 1.73 1.95 1.94 1.86 1.85 1.60 1.46 1.31 1.25 1.23 1.16 1.02 0.91 0.90 0.89 0.88 0.92 0.98 1.06 1.11
1.02 1.02 1.05 1.00 0.99 1.07 1.20 1.31 1.59 1.82 1.96 2.04 2.06 1.89 1.69 1.56 1.52 1.48 1.56 1.70 1.76 1.66 1.69 1.76 1.69 1.53 1.42 1.31 1.34 1.38 1.28 1.16 1.06 1.02 1.04 1.05 1.11 1.19
1.05 1.10 1.07 1.00 1.03 1.04 1.07 1.08 1.13 1.32 1.53 1.73 1.76 1.65 1.72 1.63 1.57 1.47 1.49 1.49 1.49 1.60 1.67 1.75 1.72 1.62 1.53 1.52 1.55 1.44 1.38 1.29 1.20 1.15 1.15 1.16 1.12 1.13
1.00 0.97 1.06 1.09 1.12 1.17 1.10 1.14 1.07 1.05 1.15 1.18 1.32 1.54 1.70 1.87 1.85 1.75 1.76 1.68 1.60 1.70 1.71 1.69 1.58 1.50 1.41 1.39 1.45 1.32 1.24 1.19 1.17 1.15 1.14 1.13 1.09 1.08
0.97 0.99 1.08 1.13 1.29 1.34 1.23 1.28 1.22 1.18 1.17 1.27 1.36 1.48 1.60 1.70 1.84 1.87 1.83 1.80 1.68 1.61 1.59 1.55 1.43 1.46 1.45 1.33 1.25 1.26 1.15 1.10 1.07 1.05 1.06 1.05 1.07 1.15
1.12 1.13 1.35 1.31 1.31 1.24 1.18 1.33 1.29 1.15 1.08 1.12 1.18 1.27 1.32 1.43 1.57 1.60 1.73 1.83 1.74 1.59 1.38 1.35 1.34 1.39 1.46 1.34 1.20 1.13 1.09 1.12 1.09 1.04 1.02 1.05 1.13 1.14
1.23 1.20 1.17 1.34 1.27 1.18 1.14 1.17 1.31 1.20 1.13 1.16 1.15 1.15 1.17 1.22 1.28 1.35 1.48 1.63 1.72 1.58 1.36 1.37 1.36 1.34 1.29 1.16 1.13 1.09 1.05 1.05 1.05 1.06 1.10 1.15 1.19 1.16
1.25 1.13 1.04 1.29 1.25 1.16 1.06 1.06 1.21 1.29 1.27 1.32 1.31 1.22 1.13 1.10 1.09 1.15 1.24 1.37 1.49 1.51 1.47 1.45 1.44 1.38 1.34 1.21 1.08 1.05 1.06 1.08 1.09 1.05 1.02 1.21 1.29 1.35
1.17 1.18 1.15 1.19 1.11 1.05 1.13 1.15 1.17 1.19 1.28 1.32 1.22 1.09 1.03 1.03 1.10 1.21 1.31 1.39 1.47 1.44 1.39 1.39 1.44 1.50 1.50 1.37 1.23 1.13 1.12 1.09 1.06 1.02 0.99 1.01 1.08 1.25
0.97 1.01 1.01 0.99 0.98 0.99 1.04 1.12 1.17 1.22 1.25 1.19 1.08 0.96 0.97 1.05 1.09 1.14 1.30 1.43 1.56 1.52 1.46 1.51 1.56 1.61 1.64 1.46 1.36 1.27 1.22 1.19 1.13 1.14 1.12 1.06 1.03 1.07
1.18 1.04 0.98 0.95 0.93 0.91 0.95 1.00 1.06 1.07 1.09 1.07 1.04 1.02 1.00 1.02 1.04 1.04 1.16 1.25 1.27 1.24 1.27 1.36 1.56 1.71 1.71 1.66 1.60 1.41 1.38 1.36 1.35 1.38 1.37 1.27 1.10 1.02
1.55 1.47 1.39 1.26 1.14 1.03 0.97 0.93 0.91 0.93 0.96 1.01 1.02 1.01 1.02 1.07 1.11 1.11 1.14 1.20 1.20 1.11 1.08 1.14 1.38 1.69 1.85 1.76 1.59 1.46 1.43 1.37 1.38 1.52 1.55 1.47 1.25 1.10
1.47 1.48 1.45 1.27 1.12 1.03 0.93 0.83 0.79 0.81 0.90 0.91 0.94 0.98 0.99 1.04 1.09 1.09 1.09 1.13 1.17 1.13 1.08 1.11 1.25 1.46 1.64 1.53 1.33 1.24 1.31 1.37 1.47 1.55 1.59 1.49 1.28 1.15
1.09 1.12 1.07 1.02 0.94 0.81 0.75 0.74 0.71 0.76 0.86 0.89 0.90 0.91 0.94 1.00 1.03 1.07 1.08 1.09 1.15 1.14 1.10 1.05 1.07 1.19 1.36 1.34 1.22 1.08 1.09 1.23 1.34 1.37 1.35 1.36 1.31 1.36
0.75 0.73 0.68 0.68 0.68 0.64 0.62 0.61 0.64 0.69 0.76 0.85 0.89 0.88 0.88 0.94 0.99 1.04 1.11 1.20 1.19 1.15 1.15 1.05 1.01 1.18 1.28 1.40 1.36 1.04 0.95 1.15 1.28 1.29 1.33 1.44 1.43 1.32
0.53 0.54 0.53 0.53 0.56 0.57 0.60 0.62 0.63 0.66 0.72 0.79 0.84 0.90 0.91 0.91 0.94 1.01 1.07 1.13 1.13 1.10 1.09 1.09 1.12 1.23 1.33 1.44 1.38 1.17 1.06 1.06 1.27 1.47 1.40 1.38 1.36 1.26
0.53 0.53 0.52 0.54 0.56 0.56 0.61 0.66 0.70 0.73 0.75 0.82 0.85 0.89 0.95 0.98 0.98 1.01 1.04 1.05 1.08 1.09 1.08 1.12 1.15 1.24 1.30 1.35 1.40 1.36 1.30 1.21 1.22 1.33 1.35 1.42 1.29 1.06